Regional Weather Roundup
Issued by NWS

Home | Current Version | Previous Version | Graphics & Text | Print | Product List | Glossary On
Versions: 1 2 3 4 5 6 7 8 9 10 11 12 13 14 15 16 17 18 19 20 21 22 23 24 25 26 27 28 29 30 31 32 33 34 35 36 37 38 39 40 41 42 43 44 45 46 47 48 49 50
093
ASUS43 KLOT 232009
RWRIL

ILLINOIS REGIONAL WEATHER ROUNDUP
NATIONAL WEATHER SERVICE CHICAGO/ROMEOVILLE IL
300 PM CDT MON OCT 23 2017

NOTE: "FAIR" INDICATES FEW OR NO CLOUDS BELOW 12,000 FEET WITH NO
SIGNIFICANT WEATHER AND/OR OBSTRUCTIONS TO VISIBILITY.

* THESE STATIONS ARE NOT UNDER NWS QUALITY CONTROL. THEY ALSO MAY NOT
  REPORT WEATHER SUCH AS PRECIPITATION OR FOG.

ILZ001-002-007-009-015-016-024-232100-
NORTHWEST ILLINOIS

CITY           SKY/WX    TMP DP  RH WIND       PRES   REMARKS
MOLINE         CLOUDY    61  48  62 W12       29.74F
SAVANNA*       CLOUDY    57  48  71 SW5       29.74S
$$

ILZ003-004-008-010-011-017-018-232100-
NORTH CENTRAL ILLINOIS

CITY           SKY/WX    TMP DP  RH WIND       PRES   REMARKS
ROCKFORD       NOT AVBL
FREEPORT*      CLOUDY    56  39  52 SW5       29.74F
ROCHELLE*      CLOUDY    54  44  69 W5        29.73F
$$

ILZ005-006-012>014-019>023-232100-
NORTHEAST ILLINOIS

CITY           SKY/WX    TMP DP  RH WIND       PRES   REMARKS
CHICAGO-OHARE  CLOUDY    54  49  83 NW9       29.69F
CHICAGO-MIDWAY NOT AVBL
AURORA         PTSUNNY   54  50  86 NW5       29.71F
LANSING*       CLOUDY    51  49  93 CALM      29.71R
JOLIET*        CLOUDY    55  51  86 NW3       29.73R
WAUKEGAN       NOT AVBL
DUPAGE AIRPORT CLOUDY    53  50  89 W10       29.71F
KANKAKEE*      CLOUDY    51  50  97 NW5       29.72F
WHEELING       CLOUDY    54  51  90 NW9       29.69F
NORTHERLY ISL    N/A     53  48  83 W9          N/A
$$

LMZ740>746-232100-
SOUTHERN LAKE MICHIGAN

STATION/POSITION SKY/WX   TEMP    WIND        PRES    VSBY  WAVE
                          AIR SEA DIR/SP/G                  HT/PER
                          (F)     (DEG/KT/KT) (MB)    (MI)  (FT/S)
SOUTHERN BUOY              54 59  350/ 16/ 17 1005.8          2/ 4
WILMETTE HARBOR            53 57  310/ 14/ 17   N/A           3/ 5
HARRISON CRIB              54     310/ 17/ 19   N/A
BURNHAM HARBOR             53     300/  5/ 11   N/A
CALUMET HARBOR             51     300/  4/ 10 1004.6F
BURNS HARBOR               54     320/ 17/ 21 1005.1F
MICHIGAN CITY              53     340/ 24/ 27   N/A
MICHIGAN CITY 6N           54 57  350/ 16/ 21   N/A           6/ 5
ST. JOSEPH                 54 58   10/ 19/ 23 1003.9F         6/ 5
$$

ILZ025>027-034>036-040-047-049-050-058-095>099-232100-
WEST-CENTRAL ILLINOIS

CITY           SKY/WX    TMP DP  RH WIND       PRES   REMARKS
MACOMB*        MOSUNNY   64  46  52 W15       29.78F
JACKSONVILLE*  SUNNY     69  41  36 W10G16    29.76F
$$

ILZ028>032-037-038-041>044-048-051>054-059>061-232100-
CENTRAL ILLINOIS

CITY           SKY/WX    TMP DP  RH WIND       PRES   REMARKS
PEORIA         NOT AVBL
LACON*         CLOUDY    55  46  73 W6        29.74F
LINCOLN*       CLOUDY    58  45  61 NW5       29.77F
SPRINGFIELD    MOSUNNY   62  47  57 E6        29.77F
TAYLORVILLE    CLOUDY    60  39  46 NW6       29.77F
$$

ILZ033-039-045-046-055>057-062-063-232100-
EAST-CENTRAL ILLINOIS

CITY           SKY/WX    TMP DP  RH WIND       PRES   REMARKS
DANVILLE*      LGT RAIN  50  47  89 NW9       29.71F
MATTOON        CLOUDY    52  52 100 NW10      29.76F
$$

ILZ079-100>102-232100-
SOUTHWEST ILLINOIS

CITY           SKY/WX    TMP DP  RH WIND       PRES   REMARKS
ALTON          MOSUNNY   66  45  45 W12       29.80F
CAHOKIA*       SUNNY     70  41  34 SW8       29.79F
$$

ILZ064>066-069>071-074>076-080>082-084>086-088>090-092>094-232100-
SOUTH-CENTRAL ILLINOIS

CITY           SKY/WX    TMP DP  RH WIND       PRES   REMARKS
CARBONDALE     CLOUDY    62  53  72 SW7       29.84F
EFFINGHAM*     LGT RAIN  54  51  90 W7        29.81R
MARION         PTSUNNY   59  52  77 W6        29.86F
CENTRALIA*     MOSUNNY   58  50  73 W8        29.81F
SALEM*         CLOUDY    58  45  62 W5        29.81F
METROPOLIS*    CLOUDY    61  44  53 W5        29.87F
$$

ILZ067-068-072-073-078-083-087-091-232100-
SOUTHEAST ILLINOIS

CITY           SKY/WX    TMP DP  RH WIND       PRES   REMARKS
LAWRENCEVILLE  CLOUDY    57  52  83 W12       29.77R
FLORA*         CLOUDY    58  50  75 NW9       29.81R
FAIRFIELD*     CLOUDY    55  48  80 W5        29.81R
HARRISBURG*    CLOUDY    56  47  70 N13       29.85R
ROBINSON*      CLOUDY    54  51  89 NW14      29.78R
CARMI*         CLOUDY    56  51  83 W14G23    29.81R
$$

ABBREVIATIONS USED IN REMARKS
   TC - TEMPERATURE IN CELSIUS
  WCI - WIND CHILL INDEX
   HX - HEAT INDEX
  VSB - VISIBILITY
$$





USA.gov is the U.S. government's official web portal to all federal, state and local government web resources and services.